Home   Weather   Chelyabinsk   Past weeks
Flag for Russia

Past Weather in Chelyabinsk, Russia — Yesterday and Last 2 Weeks

Now
23 °F

Passing clouds.


Feels Like: 10 °F
Forecast: 10 / 19 °F
Wind: 15 mph from Southwest

Location: Chelyabinsk-Balandino

Current Time: Jan 16, 2019 at 9:42:19 am

Latest Report: Jan 16, 2019 at 9:00 am


Visibility: 4 mi

Pressure: 29.98 "Hg

Humidity: 74%

Dew Point: 16 °F

Location of ChelyabinskLocation

Past Weather in Chelyabinsk — Graph

°F

Chelyabinsk Temperature Yesterday

Maximum temperature yesterday: 14 °F (at 3:30 pm)
Minimum temperature yesterday: -2 °F (at 10:00 am)
Average temperature yesterday: 6 °F

High & Low Weather Summary for the Past Weeks

 TemperatureHumidityPressure
High28 °F (Jan 14, 1:30 am)100% (Jan 14, 6:30 am)30.45 "Hg (Jan 14, 6:30 am)
Low-6 °F (Jan 12, 9:30 am)62% (Jan 5, 6:30 pm)29.62 "Hg (Jan 14, 6:00 am)
Average11 °F83%30.05 "Hg
* Reported Jan 1 8:00 am — Jan 16 8:30 am, Chelyabinsk. Weather by CustomWeather, © 2019

Note: Actual official high and low records may vary slightly from our data, if they occured in-between our weather recording intervals... More about our weather records

Advertising

Chelyabinsk Weather History for the Previous 24 Hours

Scroll right to see more
 ConditionsComfort  
Time TempWeatherWind HumidityBarometerVisibility
8:30 am
Wed, Jan 16
18 °FPassing clouds.8 mph86%29.98 "Hg4 mi
8:00 am14 °FPassing clouds.3 mph85%29.98 "Hg4 mi
7:30 am18 °FPassing clouds.6 mph79%29.98 "Hg4 mi
7:00 am21 °FIce fog.6 mph80%29.98 "Hg3 mi
6:30 am16 °FPassing clouds.6 mph86%29.98 "Hg4 mi
6:00 am18 °FPassing clouds.6 mph79%30.01 "Hg4 mi
5:30 am19 °FPassing clouds.6 mph79%30.01 "Hg4 mi
5:00 am18 °FPassing clouds.3 mph86%30.01 "Hg4 mi
4:30 am12 °FPassing clouds.6 mph79%30.01 "Hg4 mi
4:00 am18 °FPassing clouds.6 mph93%30.01 "Hg4 mi
3:30 am12 °FPassing clouds.1 mph85%29.98 "Hg4 mi
3:00 am10 °FIce fog.6 mph85%29.98 "Hg3 mi
2:30 am9 °FIce fog.1 mph85%29.98 "Hg2 mi
2:00 am5 °FIce fog.3 mph85%29.98 "Hg2 mi
1:30 am5 °FIce fog.3 mph85%29.98 "Hg2 mi
1:00 am3 °FIce fog.1 mph85%29.98 "Hg2 mi
12:30 am7 °FIce fog.6 mph85%29.98 "Hg2 mi
12:00 am1 °FIce fog.3 mph85%29.98 "Hg1 mi
11:30 pm
Tue, Jan 15
1 °FIce fog.1 mph85%29.98 "Hg2 mi
11:00 pm0 °FIce fog.1 mph84%29.98 "Hg2 mi
10:30 pm3 °FIce fog.1 mph85%29.98 "Hg2 mi
10:00 pm1 °FSleet. Overcast.1 mph92%29.98 "Hg2 mi
9:30 pm1 °FIce fog.1 mph85%29.98 "Hg2 mi
9:00 pm3 °FIce fog.1 mph92%29.95 "Hg2 mi
8:30 pm5 °FIce fog.3 mph85%29.95 "Hg1 mi
8:00 pm3 °FIce fog.1 mph85%29.95 "Hg1 mi
7:30 pm5 °FIce fog.1 mph92%29.95 "Hg2 mi
7:00 pm9 °FIce fog.6 mph85%29.95 "Hg2 mi
6:30 pm9 °FIce fog.3 mph92%29.95 "Hg2 mi
6:00 pm5 °FIce fog.1 mph92%29.95 "Hg2 mi
5:30 pm9 °FIce fog.No wind85%29.95 "Hg2 mi
5:00 pm10 °FIce fog.1 mph92%29.95 "Hg2 mi
4:30 pm12 °FIce fog.6 mph92%29.95 "Hg2 mi
4:00 pm14 °FIce fog.6 mph85%29.92 "Hg2 mi
3:30 pm14 °FIce fog.1 mph92%29.92 "Hg2 mi
3:00 pm9 °FIce fog.3 mph85%29.92 "Hg2 mi
2:30 pm7 °FIce fog.3 mph85%29.92 "Hg2 mi
2:00 pm12 °FIce fog.6 mph85%29.92 "Hg2 mi
1:30 pm10 °FIce fog.3 mph85%29.92 "Hg2 mi
1:00 pm7 °FIce fog.3 mph85%29.92 "Hg2 mi
12:30 pm5 °FIce fog.3 mph92%29.92 "Hg1 mi
12:00 pm9 °FIce fog.3 mph92%29.92 "Hg1 mi
11:30 am7 °FLight snow. Ice fog.1 mph92%29.92 "Hg1 mi
11:00 am5 °FIce fog.1 mph92%29.92 "Hg2 mi
10:30 am0 °FIce fog.1 mph84%29.92 "Hg2 mi
10:00 am-2 °FIce fog.3 mph84%29.92 "Hg2 mi
9:30 am0 °FIce fog.No wind84%29.92 "Hg2 mi
9:00 am0 °FIce fog.1 mph84%29.92 "Hg2 mi
Weather by CustomWeather, © 2019

See weather overview